Location: Acheville
(50.3840°N, 2.8827°E)
Time: 12:56:30
(UTC+00:00)

ARGOS - Pass Details

Date: 24 October 2021
Orbit: 819 x 835 km, 98.4° (Epoch: 05 December)

Event Time Altitude Azimuth Distance (km) Brightness Sun altitude
Rises 18:21:00 0° 172° (S) 3,359 6.2 -16.9°
Reaches altitude 10° 18:23:22 10° 175° (S) 2,432 5.5 -17.3°
Maximum altitude 18:28:44 66° 258° (WSW) 907 3.5 -18.2°
Drops below altitude 10° 18:34:09 10° 341° (NNW) 2,457 5.9 -19.0°
Sets 18:36:33 0° 344° (NNW) 3,397 6.6 -19.4°
